Regional Weather Roundup
Issued by NWS Newport/Morehead, NC

Current Version | Previous Version | Graphics & Text | Print | Product List | Glossary Off
Versions: 1 2 3 4 5 6 7 8 9 10 11 12 13 14 15 16 17 18 19 20 21 22 23 24 25 26 27 28 29 30 31 32 33 34 35 36 37 38 39 40 41 42 43 44 45 46 47 48 49 50

000
ASUS42 KMHX 301513
RWRMHX
WEATHER ROUNDUP FOR EASTERN NORTH CAROLINA
NATIONAL WEATHER SERVICE NEWPORT/MOREHEAD CITY NC
1100 AM EDT FRI SEP 30 2016

NOTE: "FAIR" INDICATES FEW OR NO CLOUDS BELOW 12,000 FEET
WITH NO SIGNIFICANT WEATHER AND/OR OBSTRUCTIONS TO VISIBILITY

NCZ015>017-031-032-045>047-102-103-301600-
NORTH COAST

CITY           SKY/WX    TMP DP  RH WIND       PRES   REMARKS
EDENTON        CLOUDY    78  78 100 E9        30.08R
ELIZABETH CITY PTSUNNY   81  74  79 E9        30.08R
KITTY HAWK     CLOUDY    81  78  92 E5        30.08R
MANTEO         RAIN      77  75  95 E6        30.09R

$$

NCZ045>047-081-094-103-104-301600-
CENTRAL COAST

CITY           SKY/WX    TMP DP  RH WIND       PRES   REMARKS
FRISCO         CLOUDY    82  74  76 VRB6      30.09R

$$

NCZ095-097-098-100-101-301600-
SOUTHERN COAST

CITY           SKY/WX    TMP DP  RH WIND       PRES   REMARKS
BEAUFORT       CLOUDY    82  74  76 VRB7      30.05F
CEDAR ISLAND   NOT AVBL
JACKSONVILLE   CLOUDY    73  70  88 S3        30.03R
PINEY ISLAND   LGT RAIN N/A N/A N/A SE6       30.06S
WILMINGTON     RAIN      73  71  93 NE5       30.04R


$$

NCZ011>013-027>030-043-044-078>080-089-090>093-098-301600-
COASTAL PLAIN

CITY           SKY/WX    TMP DP  RH WIND       PRES   REMARKS
AHOSKIE        CLOUDY    73  72  96 NE5       30.07S
CLINTON        PTSUNNY   73  73  99 CALM      30.02S
ELIZABETHTOWN  CLOUDY    74  74  99 E6        30.01S
GOLDSBORO      CLOUDY    76  76 100 E5        30.01F
GREENVILLE     LGT RAIN  77  77 100 E6        30.06R
HAVELOCK       CLOUDY    81  75  82 SE9       30.05F
KENANSVILLE    CLOUDY    73  72  94 SE6       30.03F
KINSTON        CLOUDY    77  77 100 E3        30.04R FOG
NEW BERN       CLOUDY    79  73  82 SE7       30.05F
RICHLANDS      LGT RAIN  71  69  93 S7        30.04S
ROCKY MOUNT    CLOUDY    74  74 100 VRB3      30.05R FOG
WASHINGTON     PTSUNNY   79  76  91 E10       30.04F
WHITEVILLE     NOT AVBL

$$

AMZ130-135-150-152-154-156-158-170-250-252-270-ANZ085-086-088-633-658-670-301600-
MARINE OBSERVATIONS

STATION/POSITION TIME  TEMP    WIND        PRES    WAVE   SWELL
                       AIR SEA DIR/SP/G            HT/PER HT/PER
                 (UTC) (F)     (DEG/KT/KT) (MB)    (FT/S) (FT/S)
CHESAPEAKE LIGHT NOT AVBL
64 E VA BEACH    1450   75 75  190/  2/  4 1018.9    7/10   7/10
DUCK             1442   76 76  100/  8/  9 1018.4
2 E DUCK         1441      76                N/A     5/10   2/11
OREGON INLET     1442   78 78   90/  6/  9 1018.7
13E OREGON INLT  1430      76                N/A     6/11   7/11
HATTERAS CG      1442   77 79   30/  4/  5 1018.4
DIAMOND BUOY     1450   81 77  150/  6/  6 1018.4    4/11   3/11
CAPE LOOKOUT     1400   80     180/  6/  6 1017.4
BEAUFORT LAB     1442   81 77  160/  3/  5 1017.0
30 SE NEW RVR IN 1408   83 82  180/ 10/ 12 1017.1
30 SE NEW RVR IN 1455      82                N/A     4/ 6   2/11
27 SE WRIGHTSVLE 1408   81 81  170/  8/ 14 1016.8
5 SE WRIGHTSVLE  1408   76 80   40/ 12/ 19 1018.3
225 S CAPE HAT   1450   81 83  170/ 12/ 14 1019.5    4/11   3/11
41 SE CHARLESTON 1450   82 82  210/ 12/ 12 1015.7    3/ 5   2/10

$$




USA.gov is the U.S. government's official web portal to all federal, state and local government web resources and services.